Regional Weather Roundup
Issued by NWS Charleston, WV

Home | Current Version | Previous Version | Graphics & Text | Print | Product List | Glossary On
Versions: 1 2 3 4 5 6 7 8 9 10 11 12 13 14 15 16 17 18 19 20 21 22 23 24 25 26 27 28 29 30 31 32 33 34 35 36 37 38 39 40 41 42 43 44 45 46 47 48 49 50
000
ASUS41 KRLX 301210
RWRRLX
West Virginia Regional Weather Roundup
National Weather Service Charleston WV
800 AM EDT MON MAY 30 2016

Note: "fair" indicates few or no clouds below 12,000 feet with no
significant weather and/or obstructions to visibility.

WVZ003-301300-
Northern Panhandle of West Virginia

CITY           SKY/WX    TMP DP  RH WIND       PRES   REMARKS
WHEELING       FOG       65  63  93 S3        30.04R VSB 1/4
$$

WVZ009-301300-
Northwest West Virginia

CITY           SKY/WX    TMP DP  RH WIND       PRES   REMARKS
PARKERSBURG    FOG       63  62  97 CALM      30.06R VSB 1/8
$$

WVZ006-301300-
Western West Virginia

CITY           SKY/WX    TMP DP  RH WIND       PRES   REMARKS
HUNTINGTON       N/A     66  62  87 NW3       30.04R
$$

WVZ015-301300-
West Central West Virginia

CITY           SKY/WX    TMP DP  RH WIND       PRES   REMARKS
CHARLESTON       N/A     65  62  90 CALM      30.04R
$$

WVZ022-031-301300-
North Central West Virginia

CITY           SKY/WX    TMP DP  RH WIND       PRES   REMARKS
CLARKSBURG       N/A     64  62  93 CALM      30.05S
MORGANTOWN       N/A     67  58  72 CALM      30.06S
$$

WVZ025-035-042-045-301300-
Southern West Virginia

CITY           SKY/WX    TMP DP  RH WIND       PRES   REMARKS
BECKLEY          N/A     61  57  87 CALM      30.11R
LOGAN            N/A     64  63  94 CALM      30.05S
BLUEFIELD        N/A     58  56  93 CALM      30.14R
LEWISBURG      FOG       55  55  99 CALM      30.12R VSB<1/4
$$

WVZ047-301300-
Northern Mountains of West Virginia

CITY           SKY/WX    TMP DP  RH WIND       PRES   REMARKS
ELKINS           N/A     59  55  87 CALM      30.10S
$$

WVZ052-301300-
Eastern Panhandle of West Virginia

CITY           SKY/WX    TMP DP  RH WIND       PRES   REMARKS
MARTINSBURG      N/A     64  62  93 CALM      30.04S
PETERSBURG       N/A     64  61  90 CALM      30.06F
$$



USA.gov is the U.S. government's official web portal to all federal, state and local government web resources and services.